Rochester, MN

7:40 AM CDT on August 17, 2017 (GMT -0500)
Rochester International

Weather History for KRST - January, 2013

Change the Weather History Date:

Thursday, January 31, 2013

  Actual Average Record
Temperature  
Mean Temperature 2 °F 16 °F  
Max Temperature 11 °F 25 °F 48 °F (1989)
Min Temperature -7 °F 8 °F -31 °F (1918)
Degree Days  
Heating Degree Days 63 49  
Month to date heating degree days 1465 1532  
Since 1 July heating degree days 4183 4608  
Cooling Degree Days 0 0  
Month to date cooling degree days 0 0  
Year to date cooling degree days 0 0  
Moisture  
Dew Point -6 °F    
Average Humidity 74    
Maximum Humidity 83    
Minimum Humidity 64    
Precipitation  
Precipitation T in 0.03 in 0.87 in (1933)
Month to date precipitation 0.78 0.86  
Year to date precipitation 0.78 0.86  
Snow  
Snow T in 0.40 in 7.00 in (2002)
Month to date snowfall 1.9 12.0  
Since 1 July snowfall 16.4 31.4  
Snow Depth 1.00 in    
Sea Level Pressure  
Sea Level Pressure 29.99 in    
Wind  
Wind Speed 21 mph (WNW)    
Max Wind Speed 29 mph    
Max Gust Speed 33 mph    
Visibility 6 miles    
Events Snow    
T = Trace of Precipitation, MM = Missing Value Source: NWS Daily Summary

Daily Weather History Graph

Daily Weather History Graph

Search for Another Location

Airport or City:

Trip Planner

Search our weather history database for the weather conditions in past years. The results will help you decide how hot, cold, wet, or windy it might be!

Date:

Astronomy

Jan. 31, 2013 Rise Set
Actual Time 7:27 AM CST 5:19 PM CST
Civil Twilight 6:57 AM CST 5:50 PM CST
Nautical Twilight 6:22 AM CST 6:24 PM CST
Astronomical Twilight 5:48 AM CST 6:58 PM CST
Moon 10:35 PM CST (1/31) 9:16 AM CST (1/31)
Length of Visible Light 10h 53m
Length of Day
9h 51m
Waning Gibbous, 79% of the Moon is Illuminated
Jan 31
Waning Gibbous
Feb 3
Last Quarter
Feb 10
New
Feb 17
First Quarter
Feb 25
Full

Hourly Weather History & Observations

Time (CST) Temp. Windchill Dew Point Humidity Pressure Visibility Wind Dir Wind Speed Gust Speed Precip Events Conditions
12:14 AM 10.4 °F -6.6 °F 5.0 °F 79% 29.69 in 2.5 mi WNW 16.1 mph - 0.00 in Snow Light Snow
12:25 AM 10.4 °F -8.2 °F 3.2 °F 73% 29.69 in 4.0 mi WNW 19.6 mph - 0.00 in Snow Light Snow
12:54 AM 10.0 °F -8.1 °F 3.0 °F 73% 29.78 in 9.0 mi WNW 18.4 mph - 0.00 in   Overcast
1:54 AM 8.1 °F -11.2 °F 1.0 °F 73% 29.80 in 8.0 mi WNW 19.6 mph - 0.00 in   Overcast
2:54 AM 6.1 °F -12.2 °F -0.0 °F 76% 29.82 in 8.0 mi WNW 16.1 mph - N/A   Overcast
3:54 AM 5.0 °F -14.7 °F -0.9 °F 76% 29.82 in 9.0 mi WNW 18.4 mph - N/A   Overcast
4:54 AM 3.9 °F -16.6 °F -2.9 °F 73% 29.85 in 6.0 mi WNW 19.6 mph - 0.00 in   Overcast
5:40 AM 3.2 °F -16.5 °F -4.0 °F 72% 29.78 in 6.0 mi WNW 17.3 mph - 0.00 in   Haze
5:54 AM 3.0 °F -18.3 °F -4.0 °F 73% 29.87 in 8.0 mi WNW 20.7 mph - 0.00 in   Overcast
6:12 AM 1.4 °F -18.8 °F -4.0 °F 78% 29.79 in 7.0 mi WNW 17.3 mph 26.5 mph N/A   Overcast
6:43 AM 1.4 °F -19.9 °F -5.8 °F 72% 29.80 in 7.0 mi WNW 19.6 mph - N/A   Overcast
6:54 AM 1.9 °F -18.7 °F -6.0 °F 69% 29.90 in 6.0 mi WNW 18.4 mph 26.5 mph N/A   Haze
7:54 AM 1.0 °F -20.4 °F -7.1 °F 69% 29.92 in 10.0 mi WNW 19.6 mph - N/A   Overcast
8:54 AM 1.0 °F -22.4 °F -7.1 °F 69% 29.95 in 7.0 mi NW 24.2 mph - N/A   Overcast
9:39 AM 1.4 °F -21.0 °F -7.6 °F 66% 29.88 in 5.0 mi NW 21.9 mph 29.9 mph N/A   Haze
9:54 AM 1.9 °F -20.2 °F -6.0 °F 69% 29.97 in 5.0 mi WNW 21.9 mph 28.8 mph N/A   Haze
10:27 AM 1.4 °F -21.4 °F -7.6 °F 66% 29.90 in 7.0 mi WNW 23.0 mph - N/A   Scattered Clouds
10:43 AM 1.4 °F -21.4 °F -7.6 °F 66% 29.91 in 6.0 mi WNW 23.0 mph - N/A   Haze
10:54 AM 1.9 °F -19.8 °F -7.1 °F 66% 30.01 in 7.0 mi WNW 20.7 mph 32.2 mph N/A   Mostly Cloudy
11:09 AM 1.4 °F -21.9 °F -5.8 °F 72% 29.92 in 6.0 mi WNW 24.2 mph 32.2 mph N/A   Haze
11:54 AM 3.0 °F -18.8 °F -6.0 °F 66% 30.02 in 5.0 mi WNW 21.9 mph 28.8 mph N/A   Haze
12:54 PM 1.9 °F -21.2 °F -6.0 °F 69% 30.04 in 5.0 mi WNW 24.2 mph - N/A   Haze
1:54 PM 1.9 °F -21.6 °F -6.0 °F 69% 30.06 in 3.0 mi WNW 25.3 mph 31.1 mph 0.00 in Snow Light Snow
2:54 PM 1.9 °F -20.2 °F -6.0 °F 69% 30.09 in 2.5 mi NW 21.9 mph 29.9 mph 0.00 in   Overcast
3:21 PM 1.4 °F -21.9 °F -7.6 °F 66% 30.00 in 1.8 mi WNW 24.2 mph 32.2 mph 0.00 in Snow Light Snow
3:49 PM 1.4 °F -21.9 °F -5.8 °F 72% 30.01 in 1.2 mi WNW 24.2 mph 31.1 mph 0.00 in Snow Light Snow
3:54 PM 1.9 °F -22.0 °F -7.1 °F 66% 30.12 in 1.2 mi NW 26.5 mph 32.2 mph 0.00 in Snow Light Snow
4:01 PM 1.4 °F -22.7 °F -7.6 °F 66% 30.02 in 2.0 mi WNW 26.5 mph 32.2 mph 0.00 in Snow Blowing Snow
4:14 PM 1.4 °F -22.3 °F -7.6 °F 66% 30.03 in 3.0 mi NW 25.3 mph 32.2 mph 0.00 in   Haze
4:54 PM 1.0 °F -21.9 °F -8.0 °F 66% 30.15 in 3.0 mi WNW 23.0 mph - 0.00 in Snow Blowing Snow
5:12 PM 1.4 °F -19.9 °F -5.8 °F 72% 30.05 in 2.0 mi WNW 19.6 mph 27.6 mph 0.00 in   Overcast
5:46 PM -0.4 °F -22.3 °F -7.6 °F 72% 30.08 in 3.0 mi WNW 19.6 mph - 0.00 in   Haze
5:54 PM -0.4 °F -22.3 °F -7.6 °F 72% 30.08 in 5.0 mi WNW 19.6 mph - N/A   Haze
6:42 PM -2.2 °F -26.7 °F -9.4 °F 71% 30.10 in 7.0 mi WNW 24.2 mph 32.2 mph N/A   Overcast
6:54 PM -2.2 °F -28.0 °F -11.2 °F 66% 30.11 in 9.0 mi NW 27.6 mph 33.4 mph N/A   Scattered Clouds
7:54 PM -2.2 °F -25.2 °F -11.2 °F 66% 30.13 in 10.0 mi WNW 20.7 mph 26.5 mph N/A   Clear
8:54 PM -4.0 °F -27.0 °F -11.9 °F 69% 30.26 in 10.0 mi WNW 19.6 mph - N/A   Clear
9:54 PM -5.1 °F -27.2 °F -13.0 °F 69% 30.28 in 10.0 mi WNW 17.3 mph - N/A   Clear
10:54 PM -6.0 °F -29.6 °F -14.1 °F 68% 30.30 in 10.0 mi WNW 19.6 mph - N/A   Clear
11:54 PM -7.6 °F -31.7 °F -14.8 °F 71% 30.20 in 10.0 mi WNW 19.6 mph - N/A   Clear